logo dgac
Miércoles 20 de Marzo del 2019
Buscar por aerodromo o helipuerto
Ingrese nombre de aeródromo, localidad o designador OACI:

Aeródromo: Futaleufú (PUB) (SCFT)

Ubicación: Futaleufú, X Región, Chile (43º 11' 09'' S, 71º 51' 02'' W) Ver ubicación en el mapa

Pistas

Orientación Dimensión Pendiente Superficie Resistencia APCH THR RWY PAPI
09/27 948 x 18 1,00 ASPH PCN 27 F/A/Y/T No No No No
Horas de operación HJ
Elevación 350 m / 1148 ft
Otra Información Adm : D.G.A.C.
Uso : PUB
Ubicado a 1.2 km E Futaleufú
TEL 652486288 / CEL 988377894

Otra información ver AIP-Chile Volumen I AD 3.9-6.2-F


.
CCCM/FCCV Descargar
andera de Chile
Mapa de  Futaleufú (PUB) (SCFT)

Último METAR

METAR SCFT 210000Z AUTO 27003KT 230V290 CAVOK 12/05 Q1018

Último TAF

No hay tafs registrados para este aeródromo

Últimas fotos cámaras

Imagen aerodromo  Futaleufú (PUB) (SCFT) Este tomada el 20-03-2019 09:37:27 Imagen aerodromo  Futaleufú (PUB) (SCFT) Oeste tomada el 20-03-2019 09:35:40

Último NOTAM

W0400/19 NOTAMN Q)SCTZ/QWDLW/IV/M/AW/000/020/4313S07157W001 A)SCFT B)1903181200 C)1903242000 D)MAR 18-24 BTN 1200-2000 E)EXPLOSIVE DEMOLITIONS AT 4,2 NM SW OF AD SCFT ZONE ...D... RDO 1 NM CENTERED ON GEO COORD: 431244S / 0715640W F)GND G)2000 FT AGL

LLegadas a Futaleufú (PUB) (SCFT)

En vuelo

Vuelo Procedencia Hora Despegue Local Hora Arribo Local

Salidas de Futaleufú (PUB) (SCFT)

En vuelo

Vuelo Hacia Hora Despegue Local Hora Arribo Local